Regional Weather Roundup
Issued by NWS Charleston, SC

Current Version | Previous Version | Text Only | Print | Product List | Glossary Off
Versions: 1 2 3 4 5 6 7 8 9 10 11 12 13 14 15 16 17 18 19 20 21 22 23 24 25 26 27 28 29 30 31 32 33 34 35 36 37 38 39 40 41 42 43 44 45 46 47 48 49 50

000
ASUS42 KCHS 172012
RWRCHS

REGIONAL WEATHER ROUNDUP
NATIONAL WEATHER SERVICE CHARLESTON SC
400 PM EDT TUE OCT 17 2017

NOTE: "FAIR" INDICATES FEW OR NO CLOUDS BELOW 12,000 FEET WITH NO
SIGNIFICANT WEATHER AND/OR OBSTRUCTIONS TO VISIBILITY.

NOT ALL STATIONS ARE QUALITY CONTROLLED. USE DATA WITH CAUTION...
ESPECIALLY DEWPOINT OBSERVATIONS.

SCZ027-030-031-034>040-042>050-172100-
...SOUTHEAST SOUTH CAROLINA...

CITY           SKY/WX    TMP DP  RH WIND       PRES   REMARKS
N CHARLESTON   MOSUNNY   69  43  38 NE16      30.22F
WATERFRONT PRK   N/A     64  51  62 NE15      30.08F
JOHNS ISLAND     N/A     64  46  52 N13       30.22F
PINOPOLIS        N/A     64  46  52 NE14      30.15F
MONCKS CORNER  FAIR      66  39  37 NE12      30.24S
SUMMERVILLE    FAIR      68  43  40 N8G16     30.24F
BEAUFORT MCAS  MOSUNNY   71  43  36 N16       30.22S
BEAUFORT ARPT  FAIR      68  43  40 NE14      30.22S
HILTON HEAD IS MOSUNNY   66  43  42 N12       30.22S
WALTERBORO     CLEAR     68  37  32 NE9       30.24S
ALLENDALE      NOT AVBL

...SOUTHERN MIDLANDS AND PEE DEE...

CITY           SKY/WX    TMP DP  RH WIND       PRES   REMARKS
GEORGETOWN     NOT AVBL
KINGSTREE      FAIR      68  37  32 N7        30.25F
ORANGEBURG     SUNNY     69  36  29 NE10G18   30.25F
BARNWELL         N/A     72  39  30 NE12      30.25R
AIKEN          FAIR      66  39  37 NE10G20   30.29F
MANNING        HAZE      68  45  42 MISG      30.25F VSB<1/4
COLUMBIA       MOSUNNY   70  40  33 N7        30.25F
SUMTER         SUNNY     69  37  31 NE12      30.24F
FLORENCE       SUNNY     67  35  30 NE13      30.26F
MYRTLE BEACH   NOT AVBL
N MYRTLE BEACH CLOUDY    64  40  41 N14G25    30.25S

$$

GAZ063-065-086>088-099>101-113>116-118-119-134>141-150-172100-
...SOUTHEAST GEORGIA...

CITY           SKY/WX    TMP DP  RH WIND       PRES   REMARKS
SAVANNAH ARPT  CLOUDY    72  43  35 NE14      30.21S
HUNTER AAF     MOSUNNY   68  45  42 NE7       30.21S
FORT STEWART   SUNNY     71  43  37 NE13      30.18F
STATESBORO     SUNNY     71  33  24 NE7       30.22F
SYLVANIA       CLEAR     71  43  36 NE12      30.24S
CLAXTON        FAIR      72  42  33 N10       30.21F

...CSRA...CENTRAL AND FAR SOUTHEAST GEORGIA...

CITY           SKY/WX    TMP DP  RH WIND       PRES   REMARKS
THOMSON        SUNNY     68  38  33 E8        30.30F
AUGUSTA-BUSH   SUNNY     72  38  29 E8        30.25S
AUGUSTA-DANIEL SUNNY     71  40  32 NE10      30.26S
SWAINSBORO     FAIR      70  39  32 MISG      30.24S
VIDALIA        SUNNY     72  41  33 NE10G17   30.22S
EASTMAN        FAIR      73  13  10 N7        30.24F
HAZLEHURST     FAIR      73   9   8 NE10G16   30.20S
ALMA           SUNNY     73  42  32 E9        30.18F
WAYCROSS       SUNNY     72  41  32 E10G18    30.18F
JESUP          FAIR      73  46  38 CALM      30.19F
BAXLEY         FAIR      70  39  32 E9        30.19F
BRUNSWICK      MOSUNNY   66  52  59 NE14G21   30.19F
SAINT SIMONS   CLOUDY    67  55  65 N10G24    30.18F

$$

SCZ027-028-034-036>038-045-046-048>050-GAZ119-141-172100-
...LAKE AND SUPPLEMENTAL COASTAL OBSERVATIONS...

STATION/POSITION TIME  TEMP    WIND        PRES    WAVE   SWELL
                       AIR SEA DIR/SP/G            HT/PER HT/PER/DIR
                 (UTC) (F)     (DEG/KT/KT) (MB)    (FT/S) (FT/S/D)
WINYAH BAY       1845   60      30/  8     1024.0
LAKE MURRAY      1920   66      50/  5/  8 1024.0F
ACE BASIN NERRS  1845   67      10/  5     1024.0
FORT PULASKI     1942   66 77   40/ 13/ 17 1023.3S
SAPELO ISLAND    1900   65      20/ 15     1023.0

$$

ANZ835-935-AMZ111-154-330-350-352-354-370-450-454-472-172100-
...C-MAN AND BUOY OBSERVATIONS...

STATION/POSITION TIME  TEMP    WIND        PRES    WAVE   SWELL
                       AIR SEA DIR/SP/G            HT/PER HT/PER/DIR
                 (UTC) (F)     (DEG/KT/KT) (MB)    (FT/S) (FT/S/D)
BUOY 41004       1950   69 80   30/ 23/ 29 1021.2F   8/ 7
BUOY 41008       1950   67 78   30/ 25/ 31 1020.8F   7/ 6   2/100/10
FOLLY BEACH CMAN 1900   61      10/ 18/ 21 1024.0F
CAPERS NEARSHORE 1908   60 76   30/ 19/ 25 1023.0F
FRIPP NEARSHORE  1908   63      30/ 19/ 27   N/A


STATION/POSITION TIME  TEMP    WIND        PRES    WAVE   SWELL
                       AIR SEA DIR/SP/G            HT/PER HT/PER/DIR
                 (UTC) (F)     (DEG/KT/KT) (MB)    (FT/S) (FT/S/D)
5E ST. MARYS GA  1930      79                N/A     7/ 7   2/110/11
FRYING PAN BUOY  1950   67 77   30/ 23/ 29 1022.2F   8/ 7   3/100/11
BUOY 41025       1950   64 81   10/ 19/ 25 1022.9F   7/10   5/ 50/10
CAPE LOOKOUT NC  1900   62      20/ 15/ 19 1023.8F
BUOY 41002       1950   76 80   40/ 23/ 31 1016.6R  11/10   7/ 70/10
BUOY 41010       NOT AVBL
ST AUGUSTINE FL  2000   73 80   10/ 29/ 33 1018.8F


$$



USA.gov is the U.S. government's official web portal to all federal, state and local government web resources and services.